Hlavní strana
METAR-TAF:

METAR-TAF

Letiště :

Danville, Kentucky, Spojené státy americké

zeměpisná šířka: 37-34-40N, zeměpisná délka: 084-46-11W, výška: 312 m

Aktuální stav počasí

Zpráva byla vytvořena před 23 minutami, v 18:15 UTC
Severoseverozápadní vítr 7 kt
Teplota 11°C
Vlhkost vzduchu 100%
Tlak 1018 hPa
Viditelnost: 16.1 km
Zataženo ve výšce 600 ft
slabé mrholení

METAR: KDVK 181815Z AUTO 33007KT 10SM -DZ OVC006 11/11 A3006 RMK AO2

Čas: 13:38 (18:38 UTC)


TAF: chybějící

Stav a předpovědi počasí z více než 4 000 letišť (zprávy METAR a TAF).

Červené a žluté tečky na mapě představují dostupné meteorologické stanice.

Když kurzor umístíte na tečku, zobrazí se název stanice.

Pak kliknutím zobrazíte stav a předpověď počasí.

Chcete-li změnit mapu, kliknutím na zelené tlačítko se znaménkem +mapu přiblížíte, kliknutím na zelené tlačítko se znaménkem – mapu oddálíte a kliknutím na zelené šipky přejdete na sousední mapy.


METAR-TAF: